[[{"header":{"parameterUnit":"m.s-1","parameterCategory":1,"la1":30.2991,"la2":30.254,"lo1":-89.0895,"lo2":-89.0444,"dy":0.0017,"dx":0.0017,"nx":28,"ny":28,"refTime":"2026-01-29T03:00:00:Z","depth":0,"parameterNumber":2,"parameterNumberName":"U-component_of_WINDS"},"data":[0,0,0,0,0,0,0,0,0,0,0,0,0,0,0,0,0,0,0,0,0,0,0,0,0,0,0,0,0,0,0,0,0,0,0,0,0,0,0,0,0,0,0,0,0,0,0,0,0,0,0,0,0,0,0,0,0,0,0.1124,0.1124,0,0.1092,0.1092,0.1092,0.1022,0.1021,0.1019,0.1018,0.0987,0.0988,0.0988,0,0,0,0,0,0,0,0,0,0,0,0,0,0.1127,0.1127,0.1125,0.1124,0.1124,0.1092,0.1092,0.1092,0.1022,0.1021,0.1019,0.1017,0.0987,0.0988,0.0988,0,0,0,0,0,0,0,0,0,0,0,0,0,0.1113,0.1127,0.1125,0.1085,0.1082,0.1093,0.1092,0.1091,0.1023,0.1021,0.1018,0.1017,0.0987,0.0988,0.0988,0.1035,0,0,0.0991,0.0991,0,0,0,0,0,0,0,0,0.1114,0.1113,0.1092,0.1088,0.1084,0.1059,0.1081,0.1073,0.1023,0.1045,0.1018,0.1015,0.1013,0.1011,0.101,0.1034,0.1033,0.0991,0.0991,0.0991,0.0992,0,0,0,0,0,0,0,0.1115,0.1114,0.1112,0.1091,0.1087,0.107,0.1065,0.1079,0.1041,0.1043,0.1038,0.1035,0.101,0.101,0.1009,0.1032,0.0991,0.0991,0.0992,0.0992,0.1092,0.1094,0,0,0,0,0,0,0.1122,0.1116,0.1113,0.1111,0.1094,0.1071,0.1067,0.1069,0.1041,0.1035,0.1037,0.1032,0.1009,0.1008,0.1008,0.106,0.0991,0.0992,0.0993,0.1089,0.1092,0.1094,0,0,0,0,0,0,0.1122,0.1122,0.1114,0.1112,0.1109,0.1073,0.1077,0.107,0.1069,0.1036,0.1029,0.1043,0.1008,0.1006,0.1028,0.1058,0.0992,0.0993,0.1087,0.109,0.1093,0.1166,0,0,0,0,0,0,0.1122,0.1123,0.114,0.1113,0.111,0.1136,0.1079,0.1071,0.107,0.1063,0.104,0.1034,0.1006,0.1028,0.1029,0.1058,0.0994,0.1084,0.1088,0.1092,0.1161,0.1171,0.118,0,0,0,0,0,0.1123,0.1163,0.1141,0.1141,0.1131,0.1138,0.1136,0.1102,0.1073,0.109,0.1069,0.1035,0.1054,0.1031,0.1032,0.1061,0.1082,0.1087,0.1092,0.1156,0.1169,0.118,0,0,0,0,0,0,0.1196,0.1158,0.1134,0.1167,0.1156,0.1126,0.1147,0.1117,0.1114,0.1108,0.1067,0.1062,0.109,0.1077,0.1051,0.1104,0.1063,0.1068,0.1111,0.1123,0.1133,0.1135,0.0994,0,0,0,0,0,0.1215,0.1223,0.119,0.1222,0.1218,0.1183,0.1185,0.1159,0.1147,0.1142,0.1122,0.1112,0.1115,0.1119,0.112,0.1158,0.1152,0.1179,0.1189,0.1197,0.1202,0.1221,0.1232,0.1111,0.1111,0.1111,0,0,0.1256,0.1237,0.1245,0.1236,0.1225,0.1234,0.118,0.1193,0.1199,0.1144,0.1163,0.1149,0.1134,0.1164,0.1176,0.1155,0.1234,0.1203,0.121,0.1211,0.1227,0.1238,0.1249,0.1114,0.1113,0.1113,0,0,0.1336,0.1322,0.1346,0.1336,0.1318,0.1295,0.1301,0.1275,0.1263,0.1281,0.124,0.1247,0.1254,0.1245,0.1241,0.1316,0.1284,0.1317,0.1369,0.1387,0.1397,0.1405,0.1431,0.1441,0.1323,0.1323,0.1323,0,0.1389,0.1401,0.1363,0.1377,0.1375,0.1324,0.1348,0.134,0.1324,0.1324,0.1299,0.1306,0.1293,0.1319,0.1337,0.1336,0.1342,0.132,0.1398,0.1406,0.1413,0.1438,0.1448,0.1327,0.1326,0.1326,0.1326,0,0.1468,0.1476,0.1498,0.1483,0.1483,0.1502,0.1467,0.1471,0.1445,0.1424,0.1443,0.1425,0.1421,0.1426,0.1401,0.1449,0.1436,0.1406,0.1363,0.143,0.1452,0.1461,0.1333,0.1331,0.133,0.1329,0,0,0.1593,0.1555,0.1564,0.1556,0.1533,0.1539,0.1556,0.1551,0.1555,0.1546,0.1559,0.1565,0.1537,0.1532,0.1506,0.1523,0.1582,0.149,0.1489,0.1507,0.1632,0.1655,0.1667,0.156,0.1562,0.1563,0.1633,0,0.1667,0.1693,0.1658,0.1692,0.1699,0.1651,0.1665,0.1652,0.1633,0.1636,0.1615,0.162,0.1582,0.1579,0.1593,0.1572,0.1606,0.1566,0.1572,0.1573,0.1577,0.1678,0.1703,0.1769,0.1642,0.1643,0.1644,0,0.1757,0.1751,0.1785,0.1758,0.176,0.1773,0.1766,0.177,0.1754,0.1739,0.1733,0.1702,0.1716,0.1674,0.1694,0.1667,0.1668,0.1657,0.1659,0.1658,0.1613,0.168,0.179,0.18,0.1658,0.1657,0.1656,0,0.1845,0.1845,0.1865,0.186,0.1829,0.1839,0.1827,0.1809,0.1808,0.1802,0.18,0.1796,0.1794,0.1792,0.1759,0.1732,0.1782,0.1738,0.177,0.1771,0.1783,0.1783,0.1895,0.1784,0.1784,0.1784,0.1783,0,0.1931,0.1954,0.1903,0.1916,0.194,0.1899,0.1924,0.1907,0.1891,0.1899,0.1857,0.1866,0.1823,0.1827,0.1802,0.1821,0.1821,0.1809,0.1802,0.1813,0.1814,0.1812,0.1807,0.1786,0.1786,0.1785,0.1785,0,0.2033,0.2,0.2019,0.1987,0.198,0.1999,0.1972,0.1982,0.196,0.1971,0.1971,0.1936,0.1938,0.1906,0.1902,0.1885,0.1916,0.1901,0.1921,0.1916,0.195,0.1947,0.2064,0.2078,0.1959,0.196,0.1961,0,0.209,0.2106,0.2076,0.2078,0.2067,0.2071,0.2069,0.203,0.203,0.2013,0.2025,0.2024,0.2021,0.2027,0.2002,0.1998,0.1983,0.2024,0.1982,0.1992,0.1983,0.1982,0.1984,0.2033,0.2035,0.2036,0.2037,0,0.2194,0.2177,0.2176,0.2169,0.2168,0.2161,0.2151,0.2155,0.2112,0.2114,0.2115,0.2113,0.2109,0.2108,0.21,0.2087,0.2055,0.205,0.2057,0.2068,0.2079,0.2073,0.1945,0.2048,0.2047,0.2046,0.2045,0.2045,0.2275,0.2287,0.2267,0.2267,0.2255,0.2246,0.2254,0.2231,0.2232,0.2224,0.2201,0.2206,0.2189,0.2175,0.2165,0.2169,0.2149,0.2159,0.2162,0.2165,0.2171,0.2078,0.2167,0.2167,0.2167,0.2166,0.2166,0,0.2377,0.2361,0.2362,0.2348,0.2348,0.2316,0.2304,0.2306,0.2311,0.2297,0.2294,0.2295,0.2294,0.2268,0.2264,0.2272,0.2257,0.2272,0.2271,0.2268,0.2189,0.2183,0.2284,0.2284,0.2284,0.2284,0.2284,0.2284,0.243,0.2447,0.2428,0.2439,0.2423,0.2427,0.2422,0.2414,0.2402,0.2405,0.2404,0.2386,0.2367,0.2361,0.2359,0.2351,0.2351,0.2371,0.2359,0.2286,0.2274,0.2263,0.2257,0.2372,0.2372,0.2437,0.2438,0.2438]},{"header":{"parameterUnit":"m.s-1","parameterCategory":1,"la1":30.2991,"la2":30.254,"lo1":-89.0895,"lo2":-89.0444,"dy":0.0017,"dx":0.0017,"nx":28,"ny":28,"refTime":"2026-01-29T03:00:00:Z","depth":0,"parameterNumber":3,"parameterNumberName":"V-component_of_WINDS"},"data":[0,0,0,0,0,0,0,0,0,0,0,0,0,0,0,0,0,0,0,0,0,0,0,0,0,0,0,0,0,0,0,0,0,0,0,0,0,0,0,0,0,0,0,0,0,0,0,0,0,0,0,0,0,0,0,0,0,0,1.1746,1.1746,0,1.1793,1.1793,1.1794,1.1741,1.1739,1.1737,1.1735,1.1783,1.1786,1.1789,0,0,0,0,0,0,0,0,0,0,0,0,0,1.1611,1.1614,1.1746,1.1746,1.1747,1.1793,1.1793,1.1794,1.1741,1.1739,1.1736,1.1734,1.1781,1.1785,1.1789,0,0,0,0,0,0,0,0,0,0,0,0,0,1.1665,1.1615,1.1746,1.1726,1.1725,1.1793,1.1793,1.1794,1.1742,1.1739,1.1736,1.1733,1.178,1.1785,1.1789,1.1878,0,0,1.1804,1.1806,0,0,0,0,0,0,0,0,1.1662,1.167,1.1728,1.1728,1.1726,1.1758,1.1763,1.1822,1.1742,1.1735,1.1735,1.1731,1.1777,1.1782,1.1797,1.1881,1.1883,1.1804,1.1807,1.1809,1.181,0,0,0,0,0,0,0,1.1658,1.1668,1.1764,1.1729,1.1728,1.1715,1.172,1.1774,1.1772,1.1736,1.1732,1.1738,1.1776,1.1792,1.1798,1.1883,1.1804,1.1808,1.1811,1.1813,1.2044,1.2047,0,0,0,0,0,0,1.1657,1.1665,1.1763,1.1766,1.1686,1.172,1.1725,1.1751,1.1771,1.1772,1.1741,1.1736,1.1786,1.1792,1.1799,1.1905,1.1809,1.1813,1.1816,1.2041,1.2045,1.2048,0,0,0,0,0,0,1.1654,1.1666,1.1761,1.1714,1.1725,1.1726,1.1755,1.1753,1.177,1.1775,1.1775,1.1758,1.1784,1.1792,1.1859,1.1906,1.1816,1.182,1.2037,1.2042,1.2046,1.2118,0,0,0,0,0,0,1.1651,1.1665,1.1699,1.1716,1.1728,1.182,1.1758,1.1756,1.1778,1.1772,1.1792,1.1792,1.1782,1.1853,1.1864,1.1911,1.1824,1.2033,1.2039,1.2045,1.2111,1.2124,1.2136,0,0,0,0,0,1.1646,1.1717,1.1701,1.1713,1.177,1.1823,1.183,1.1818,1.1782,1.1816,1.182,1.1791,1.1899,1.186,1.1872,1.1921,1.203,1.2037,1.2044,1.2106,1.2122,1.2136,0,0,0,0,0,0,1.1705,1.1719,1.1701,1.1779,1.1801,1.1814,1.1856,1.1835,1.1867,1.1859,1.1842,1.1847,1.1918,1.1927,1.1882,1.2009,1.1959,1.1969,1.2001,1.2016,1.2029,1.2025,1.1827,0,0,0,0,0,1.1727,1.1769,1.1779,1.1847,1.1859,1.1856,1.1879,1.1867,1.1888,1.1897,1.1905,1.1927,1.1966,1.1992,1.2028,1.2113,1.2116,1.2152,1.2165,1.2175,1.2184,1.223,1.2246,1.2073,1.2073,1.2073,0,0,1.1773,1.1786,1.1813,1.1859,1.1874,1.1919,1.1864,1.1912,1.1945,1.1904,1.1968,1.1975,1.1999,1.2075,1.2109,1.2084,1.2233,1.2184,1.2192,1.2196,1.2239,1.2256,1.2271,1.2078,1.2077,1.2076,0,0,1.188,1.1894,1.1952,1.1969,1.1993,1.1991,1.2005,1.2023,1.2026,1.209,1.2061,1.2099,1.2166,1.2184,1.2202,1.2318,1.2293,1.2331,1.2395,1.244,1.2454,1.2466,1.2507,1.2522,1.2339,1.234,1.234,0,1.1934,1.1999,1.1985,1.2037,1.2058,1.2024,1.2084,1.21,1.2135,1.215,1.2122,1.2206,1.222,1.23,1.2329,1.2344,1.236,1.2328,1.2453,1.2465,1.2476,1.2515,1.2531,1.2344,1.2344,1.2343,1.2343,0,1.2065,1.2111,1.2155,1.219,1.2217,1.2272,1.2267,1.2295,1.2282,1.2284,1.235,1.2365,1.2404,1.2422,1.2409,1.2502,1.2485,1.2456,1.2404,1.2497,1.2534,1.2549,1.235,1.2349,1.2347,1.2346,0,0,1.2208,1.2236,1.2252,1.2268,1.2293,1.2328,1.2383,1.2421,1.2446,1.2472,1.2517,1.2576,1.2548,1.2569,1.2558,1.2598,1.269,1.2563,1.2564,1.2586,1.2793,1.2815,1.2832,1.2674,1.2677,1.2679,1.2791,0,1.2315,1.2409,1.2399,1.2488,1.2531,1.25,1.2548,1.2568,1.2572,1.2608,1.2612,1.2654,1.2615,1.2627,1.2665,1.267,1.2731,1.2662,1.2716,1.2718,1.271,1.2852,1.2875,1.2979,1.2805,1.2808,1.2809,0,1.2451,1.2482,1.2576,1.2596,1.2614,1.2656,1.2691,1.2727,1.2751,1.275,1.2774,1.2757,1.2812,1.2761,1.2837,1.2791,1.2813,1.2819,1.2823,1.2826,1.2769,1.2859,1.3012,1.3028,1.2832,1.283,1.2828,0,1.2546,1.2612,1.2676,1.2691,1.2716,1.2747,1.2758,1.2779,1.2803,1.2834,1.285,1.2887,1.2907,1.2937,1.293,1.2894,1.3009,1.2956,1.301,1.301,1.3034,1.3033,1.3193,1.305,1.3049,1.3049,1.3049,0,1.2666,1.2724,1.272,1.2759,1.2825,1.2813,1.2878,1.2886,1.2905,1.2946,1.2923,1.2962,1.2952,1.2991,1.2987,1.3051,1.306,1.3061,1.3059,1.3063,1.3063,1.3076,1.3069,1.3053,1.3052,1.3051,1.3051,0,1.2782,1.2781,1.285,1.2868,1.2874,1.2922,1.2937,1.2975,1.2977,1.303,1.3042,1.3045,1.309,1.3088,1.3138,1.3135,1.3215,1.3204,1.3207,1.3204,1.3258,1.3253,1.3432,1.3455,1.3297,1.3298,1.33,0,1.2857,1.2902,1.2926,1.2952,1.2966,1.3008,1.3034,1.3025,1.3052,1.3083,1.3118,1.3161,1.3194,1.3268,1.3275,1.3314,1.3305,1.3365,1.331,1.3313,1.3305,1.3303,1.3307,1.3375,1.3377,1.3378,1.3379,0,1.2992,1.299,1.3027,1.3065,1.3096,1.3125,1.3152,1.3175,1.3169,1.3201,1.3247,1.3273,1.3326,1.3369,1.3407,1.3419,1.3399,1.3397,1.3411,1.3415,1.3415,1.3416,1.3235,1.3392,1.3391,1.339,1.339,1.3389,1.309,1.3129,1.3152,1.3195,1.3214,1.324,1.3277,1.3285,1.3323,1.3365,1.3358,1.341,1.3434,1.3483,1.3499,1.354,1.3518,1.3539,1.3544,1.3549,1.3555,1.3409,1.3547,1.3546,1.3546,1.3546,1.3545,0,1.3224,1.3238,1.3277,1.3316,1.335,1.3328,1.3357,1.3387,1.3433,1.3457,1.3492,1.3546,1.3588,1.36,1.3641,1.3671,1.3663,1.3682,1.3679,1.3683,1.3572,1.3556,1.3688,1.3688,1.3688,1.3688,1.3688,1.3688,1.3297,1.3361,1.3363,1.3437,1.3451,1.3501,1.352,1.3544,1.3564,1.3625,1.366,1.3668,1.3687,1.373,1.3768,1.3771,1.3787,1.381,1.3809,1.3705,1.369,1.3677,1.3661,1.3814,1.3814,1.3915,1.3916,1.3917]}]]